sat.trackr.live / text

‹ back to catalog

HULIANWANG DIGUI-97

NORAD 66413 · 2025-258B

PAYLOAD ACTIVE UNKNOWN

§ Identity

Operator
Country
PRC
Launch date
2025-11-10
Launch site
WSC
Launch vehicle
Mass (kg)
RCS (m²)

External: N2YO · Heavens-Above · Gunter

§ Orbital elements

Epoch: 2026-09-20T20:48:29.973312Z

Period
108.33 min
Inclination
50.0023°
Eccentricity
0.0000082
Mean motion
13.29330528 rev/d
Perigee alt
1,149.2 km
Apogee alt
1,149.4 km
Semi-major
7,527.4 km
B*
9.4641e-5
RAAN
312.6892°
Arg perigee
87.6299°
Mean anomaly
272.4582°
Rev number
4,245

§ Raw data

HULIANWANG DIGUI-971 66413U 25258B   26263.86701358 -.00000080  00000+0  94641-4 0  99952 66413  50.0023 312.6892 0000082  87.6299 272.4582 13.29330528 42455

JSON: /api/v1/satellites/66413 · /tle

For live sub-satellite position, see the globe view (requires WebGL).

§ Visibility from observer

Set your observer location to see the next 7 days of passes ≥ 10°. The values pass through the URL so the page stays shareable.

No JS? Fill the form by hand. The geolocation button needs JavaScript.